Jackson, WY

5:06 PM MST on December 15, 2019 (GMT -0700)
Jackson Hole

Weather History for KJAC - October, 2019

Change the Weather History Date:

Friday, October 25, 2019

  Actual Average Record
Temperature  
Mean Temperature 36 °F -  
Max Temperature 55 °F 50 °F 69 °F (2014)
Min Temperature 17 °F 21 °F 4 °F (1961)
Degree Days  
Heating Degree Days 29    
Moisture  
Dew Point 21 °F    
Average Humidity 62    
Maximum Humidity 89    
Minimum Humidity 33    
Precipitation  
Precipitation 0.00 in - - ()
Sea Level Pressure  
Sea Level Pressure 30.41 in    
Wind  
Wind Speed 5 mph ()    
Max Wind Speed 15 mph    
Max Gust Speed 17 mph    
Visibility 10.0 miles    
Events      
Averages and records for this station are not official NWS values.
T = Trace of Precipitation, MM = Missing Value Source: Averaged Metar Reports

Daily Weather History Graph

Daily Weather History Graph

Search for Another Location

Airport or City:

Astronomy

Oct. 25, 2019 Rise Set
Actual Time 7:49 AM MDT 6:23 PM MDT
Civil Twilight 7:20 AM MDT 6:53 PM MDT
Nautical Twilight 6:46 AM MDT 7:26 PM MDT
Astronomical Twilight 6:13 AM MDT 7:59 PM MDT
Moon 4:27 AM MDT (10/25) 5:35 PM MDT (10/25)
Length of Visible Light 11h 33m
Length of Day
10h 34m
Waning Crescent, 8% of the Moon is Illuminated
Oct 25
Waning Crescent
Oct 27
New
Nov 4
First Quarter
Nov 12
Full
Nov 19
Last Quarter

Hourly Weather History & Observations

Time (MDT) Temp. Windchill Dew Point Humidity Pressure Visibility Wind Dir Wind Speed Gust Speed Precip Events Conditions
12:56 AM 21.9 °F 14.5 °F 18.0 °F 85% 30.61 in 10.0 mi NNE 5.8 mph - N/A   Clear
1:56 AM 21.9 °F 14.5 °F 17.1 °F 82% 30.60 in 10.0 mi ENE 5.8 mph - N/A   Partly Cloudy
2:56 AM 19.9 °F 14.9 °F 17.1 °F 89% 30.58 in 10.0 mi ENE 3.5 mph - N/A   Clear
3:56 AM 21.9 °F 14.5 °F 19.0 °F 89% 30.56 in 10.0 mi NNE 5.8 mph - N/A   Clear
4:56 AM 19.9 °F 13.4 °F 17.1 °F 89% 30.56 in 10.0 mi North 4.6 mph - N/A   Clear
5:56 AM 19.9 °F 14.9 °F 16.0 °F 85% 30.60 in 10.0 mi NE 3.5 mph - N/A   Clear
6:56 AM 17.1 °F 8.7 °F 14.0 °F 88% 30.63 in 10.0 mi NNE 5.8 mph - N/A   Clear
7:56 AM 18.0 °F 11.1 °F 15.1 °F 88% 30.62 in 10.0 mi ENE 4.6 mph - N/A   Clear
8:56 AM 23.0 °F 18.4 °F 19.0 °F 85% 30.60 in 10.0 mi North 3.5 mph - N/A   Clear
9:56 AM 28.9 °F - 21.0 °F 72% 30.59 in 10.0 mi Calm Calm - N/A   Clear
10:56 AM 37.0 °F 34.5 °F 19.0 °F 48% 30.54 in 10.0 mi SSE 3.5 mph - N/A   Clear
11:56 AM 41.0 °F 39.0 °F 19.0 °F 41% 30.50 in 10.0 mi Variable 3.5 mph - N/A   Clear
12:56 PM 43.0 °F 39.5 °F 21.0 °F 42% 30.43 in 10.0 mi Variable 5.8 mph - N/A   Clear
1:56 PM 46.9 °F - 23.0 °F 39% 30.37 in 10.0 mi South 5.8 mph - N/A   Clear
2:56 PM 53.1 °F - 25.0 °F 34% 30.30 in 10.0 mi SSW 9.2 mph - N/A   Clear
3:56 PM 55.0 °F - 26.1 °F 33% 30.25 in 10.0 mi South 13.8 mph - N/A   Clear
4:56 PM 54.0 °F - 26.1 °F 34% 30.24 in 10.0 mi South 15.0 mph - N/A   Clear
5:56 PM 51.1 °F - 26.1 °F 38% 30.22 in 10.0 mi SSW 12.7 mph 17.3 mph N/A   Scattered Clouds
6:56 PM 45.0 °F - 25.0 °F 46% 30.25 in 10.0 mi Calm Calm - N/A   Overcast
7:56 PM 43.0 °F 38.8 °F 26.1 °F 51% 30.23 in 10.0 mi West 6.9 mph - N/A   Clear
8:56 PM 43.0 °F 41.3 °F 26.1 °F 51% 30.19 in 10.0 mi SW 3.5 mph - N/A   Partly Cloudy
9:56 PM 39.9 °F - 26.1 °F 58% 30.15 in 10.0 mi Calm Calm - N/A   Clear
10:56 PM 37.9 °F 33.5 °F 26.1 °F 62% 30.09 in 10.0 mi SSE 5.8 mph - N/A   Clear
11:56 PM 37.0 °F 33.3 °F 26.1 °F 65% 30.04 in 10.0 mi South 4.6 mph - N/A   Clear